Volver al catálogo

IRIDIUM 33 DEB

ActivoPO
NORAD 35806·DEBRIS·🇺🇸 United States

Lanzado Sep 14, 1997 desde Baikonur Cosmodrome

Loading…

Próximos Pases (próximas 24 horas)

TLE

EnvejeciendoSource: Space-Track

Época: Sep 6, 2026, 07:31 UTC

1 35806U 97051SQ  26249.31330424  .00002022  00000-0  41871-3 0  9997
2 35806  86.3381 262.5210 0011015 235.2177 124.7997 14.59800011902252

Sigue IRIDIUM 33 DEB en tiempo real con AllMySat

Download on the App Store